Flag for Germany Weather past 2 weeks in Homburg (Saar), Saarland, Germany

Now
88 °F

Passing clouds.


Feels Like: 86 °F
Forecast: 63 / 95 °F
Wind: 7 mph from East

Location: Saarbruecken / Ensheim

Current Time: Jul 1, 2015 at 1:59:08 PM

Latest Report: Jul 1, 2015 at 1:20 PM


Visibility: N/A

Pressure: 30.07 "Hg

Humidity: 31%

Dew point: 54 °F

Location of Homburg (Saar)Location

Historic Weather in Homburg (Saar) — Graph

°F

Homburg (Saar) temperature yesterday

Maximum temperature yesterday: 86 °F (at 4:50 PM)
Minimum temperature yesterday: 59 °F (at 3:20 AM)
Average temperature yesterday: 72 °F

Past Weeks' High & Low Weather Summary

 TemperatureHumidityPressure
High86 °F (Jun 30, 4:50 PM)100% (Jun 18, 9:50 AM)30.27 "Hg (Jun 18, 9:50 AM)
Low45 °F (Jun 19, 5:20 AM)27% (Jun 30, 2:50 PM)29.74 "Hg (Jun 22, 9:50 PM)
Average62 °F66%30.10 "Hg
* Reported Jun 16 12:20 PM — Jul 1 12:20 PM, Homburg (Saar), Weather by CustomWeather, © 2015

Note: Actual official high and low records may vary slightly from our data, if they occured in-between our weather recording intervals... More about our weather records

Advertising

Homburg (Saar) weather history for previous 24 hours

 ConditionsComfort  
Time TempWeatherWind HumidityBarometerVisibility
12:20 PM
Wed, Jul 1
86 °FSunny.6 mph33%30.09 "Hg10 mi
11:50 AM84 °FPassing clouds.6 mph35%30.09 "HgN/A
11:20 AM82 °FPassing clouds.8 mph40%30.09 "HgN/A
10:50 AM81 °FPassing clouds.7 mph42%30.09 "HgN/A
10:20 AM79 °FPassing clouds.6 mph42%30.09 "HgN/A
9:50 AM77 °FPassing clouds.8 mph44%30.09 "HgN/A
9:20 AM75 °FPassing clouds.8 mph47%30.09 "HgN/A
8:50 AM73 °FPassing clouds.9 mph44%30.09 "HgN/A
8:20 AM72 °FSunny.12 mph47%30.09 "Hg10 mi
7:50 AM68 °FSunny.10 mph53%30.09 "Hg10 mi
7:20 AM68 °FSunny.9 mph49%30.09 "Hg10 mi
6:50 AM66 °FSunny.9 mph52%30.09 "Hg10 mi
6:20 AM66 °FClear.10 mph52%30.09 "Hg10 mi
5:50 AM64 °FPassing clouds.9 mph56%30.09 "HgN/A
5:20 AM66 °FMild.10 mph49%30.09 "HgN/A
4:50 AM66 °FClear.10 mph49%30.07 "Hg10 mi
4:20 AM66 °FPassing clouds.6 mph49%30.07 "HgN/A
3:50 AM66 °FPassing clouds.7 mph49%30.07 "HgN/A
3:20 AM66 °FClear.7 mph49%30.07 "Hg10 mi
2:50 AM66 °FClear.8 mph49%30.09 "Hg10 mi
2:20 AM66 °FClear.9 mph49%30.09 "Hg10 mi
1:50 AM66 °FClear.9 mph49%30.09 "Hg10 mi
1:20 AM68 °FClear.8 mph43%30.09 "Hg10 mi
12:50 AM68 °FClear.7 mph43%30.09 "Hg10 mi
12:20 AM68 °FClear.6 mph43%30.09 "Hg10 mi
11:50 PM
Tue, Jun 30
70 °FClear.6 mph40%30.09 "Hg10 mi
11:20 PM70 °FClear.8 mph43%30.09 "Hg10 mi
10:50 PM70 °FClear.8 mph40%30.09 "Hg10 mi
10:20 PM70 °FSunny.9 mph40%30.09 "Hg10 mi
9:50 PM73 °FSunny.9 mph33%30.09 "Hg10 mi
9:20 PM77 °FSunny.9 mph30%30.09 "Hg10 mi
8:50 PM79 °FSunny.9 mph30%30.09 "Hg10 mi
8:20 PM81 °FSunny.7 mph32%30.09 "Hg10 mi
7:50 PM82 °FPassing clouds.8 mph32%30.09 "HgN/A
6:50 PM84 °FPassing clouds.6 mph31%30.09 "HgN/A
6:20 PM84 °FPassing clouds.7 mph31%30.09 "HgN/A
5:50 PM84 °FSunny.6 mph31%30.09 "Hg10 mi
4:50 PM86 °FPassing clouds.6 mph27%30.09 "HgN/A
4:20 PM84 °FPassing clouds.8 mph27%30.12 "HgN/A
3:50 PM84 °FPassing clouds.7 mph29%30.12 "HgN/A
2:50 PM84 °FPassing clouds.7 mph27%30.12 "HgN/A
2:20 PM82 °FPassing clouds.7 mph30%30.12 "HgN/A
1:50 PM81 °FPassing clouds.6 mph34%30.15 "HgN/A
1:20 PM81 °FSunny.8 mph34%30.15 "Hg10 mi
Weather by CustomWeather, © 2015

See weather overviewHow to use our weather pages